Погода в Октябрьском

Россия / Свердловская область     56°39′17″N   61°27′20″E
темп.,
°C
ветер,
м/с
пор.,
м/с
влажн.,
%
обл.,
%
осадки,
мм/ч
давл.,
гПа
погр.,
м
8 мая, сб
сб823:00+13ююз375458 0.0 1018150
02:00+10ююз35565 0.0 101880
05:00+9юз22587 0.0 101823
08:00+15юз244772 0.0 1018230
11:00+20ююз332790 0.0 10171532
14:00+21ююв3223100 0.0 10162583
17:00+21юв2222100 0.0 10162450
20:00+16ю1137100 0.0 101612
9 мая, вс
вс923:00+12ссв225979 0.0 101722
02:00+11ссз2476100 0.0 101668
05:00+10с257699 0.0 101793
08:00+14ссв2457100 0.0 1017212
11:00+18ссв2343100 0.0 1017695
14:00+21в3629100 0.0 10172956
17:00+21в3526100 0.0 10172795
20:00+17в134499 0.0 101862
10 мая, пн
пн1023:00+14в125297 0.0 101925
02:00+12всв226297 0.1 102012
05:00+12всв2669100 0.1 1022119
08:00+15в355394 0.0 1023390
11:00+18в343694 0.0 10231149
14:00+20в44305 0.0 10231655
17:00+20в33285 0.0 10231829
20:00+17вюв22406 0.0 102446
11 мая, вт
вт1123:00+12ю374877 0.0 1025125
02:00+10ююз2452100 0.0 102570
05:00+10ююз2556100 0.0 102496
08:00+13юз3647100 0.0 1025237
11:00+16з2348100 0.0 1025561
14:00+16зсз356766 0.8 1024753
17:00+18ссз56435 1.6 10251959
20:00+13ссв48625 0.0 1027742
12 мая, ср
ср1223:00+9ссз22725 0.0 102829
02:00+8сз247099 0.0 102968
05:00+7сз257396 0.0 103092
08:00+10сз3657100 0.0 1030250
11:00+12зсз4750100 0.0 1029664
14:00+16сз4751100 0.0 10281033
17:00+13ссв1167100 0.0 102849
20:00+11св2587100 0.5 1028187